| time (UTC) | temp F | wind direction | speed knots | gust knots | rain 1hr in | rain 24hr in | rain mn in | humidity % | barometer mb |
| 20260507084507 | 57 | 339 | 0.0 | 1.7 | 0.00 | 0.00 | 0.00 | 83 | 1017.1 |
| 20260507083003 | 57 | 346 | 0.0 | 1.7 | 0.00 | 0.00 | 0.00 | 83 | 1017.2 |
| 20260507081504 | 57 | 326 | 0.0 | 1.7 | 0.00 | 0.00 | 0.00 | 83 | 1017.3 |
| 20260507080010 | 58 | 315 | 0.0 | 1.7 | 0.00 | 0.00 | 0.00 | 81 | 1017.3 |
| 20260507074506 | 58 | 30 | 0.0 | 1.7 | 0.00 | 0.00 | 0.00 | 81 | 1017.2 |
| 20260507073007 | 58 | 342 | 0.0 | 1.7 | 0.00 | 0.00 | 0.00 | 80 | 1017.2 |
| 20260507071504 | 58 | 9 | 0.0 | 1.7 | 0.00 | 0.00 | 0.00 | 80 | 1017.3 |
| 20260507070010 | 58 | 9 | 0.0 | 0.9 | 0.00 | 0.00 | 0.00 | 80 | 1017.4 |
| 20260507064509 | 59 | 5 | 0.0 | 0.9 | 0.00 | 0.00 | 0.00 | 80 | 1017.5 |
| 20260507063008 | 59 | 14 | 0.0 | 0.0 | 0.00 | 0.00 | 0.00 | 78 | 1017.6 |
| 20260507061508 | 60 | 15 | 0.9 | 1.7 | 0.00 | 0.00 | 0.00 | 78 | 1017.6 |
| 20260507060012 | 60 | 290 | 0.9 | 1.7 | 0.00 | 0.00 | 0.00 | 78 | 1017.7 |
| 20260507054510 | 60 | 294 | 0.0 | 1.7 | 0.00 | 0.00 | 0.00 | 77 | 1017.6 |
| 20260507053009 | 60 | 343 | 0.0 | 1.7 | 0.00 | 0.00 | 0.00 | 78 | 1017.6 |
| 20260507051510 | 61 | 41 | 0.9 | 1.7 | 0.00 | 0.00 | 0.00 | 77 | 1017.6 |
| 20260507050010 | 61 | 296 | 0.9 | 1.7 | 0.00 | 0.00 | 0.00 | 76 | 1017.6 |
| 20260507044513 | 61 | 30 | 0.9 | 2.6 | 0.00 | 0.00 | 0.00 | 76 | 1017.5 |
| 20260507043008 | 61 | 282 | 0.0 | 1.7 | 0.00 | 0.00 | 0.00 | 75 | 1017.5 |
| 20260507041531 | 61 | 281 | 0.0 | 1.7 | 0.00 | 0.00 | 0.00 | 75 | 1017.5 |
| 20260507040016 | 62 | 278 | 0.0 | 1.7 | 0.00 | 0.00 | 0.00 | 74 | 1017.3 |
| 20260507034512 | 62 | 277 | 0.9 | 1.7 | 0.00 | 0.00 | 0.00 | 73 | 1017.2 |
| 20260507031505 | 63 | 311 | 1.7 | 3.5 | 0.00 | 0.00 | 0.00 | 69 | 1017.2 |
| 20260507030003 | 63 | 272 | 0.9 | 2.6 | 0.00 | 0.00 | 0.00 | 69 | 1016.9 |
| 20260507024505 | 64 | 280 | 1.7 | 4.3 | 0.00 | 0.00 | 0.00 | 65 | 1016.8 |
| 20260507023003 | 65 | 302 | 0.9 | 4.3 | 0.00 | 0.00 | 0.00 | 65 | 1016.7 |
| 20260507021504 | 65 | 320 | 1.7 | 4.3 | 0.00 | 0.00 | 0.00 | 66 | 1016.6 |
| 20260507020004 | 66 | 281 | 1.7 | 7.0 | 0.00 | 0.00 | 0.00 | 65 | 1016.5 |
| 20260507013015 | 67 | 313 | 1.7 | 6.1 | 0.00 | 0.00 | 0.00 | 61 | 1016.2 |
| 20260507011504 | 68 | 290 | 2.6 | 7.0 | 0.00 | 0.00 | 0.00 | 59 | 1016.2 |
| 20260507010004 | 69 | 283 | 3.5 | 7.8 | 0.00 | 0.00 | 0.00 | 59 | 1016.2 |
| 20260507004503 | 70 | 251 | 2.6 | 6.1 | 0.00 | 0.00 | 0.00 | 57 | 1016.1 |
| 20260507003011 | 70 | 278 | 4.3 | 7.0 | 0.00 | 0.00 | 0.00 | 55 | 1016.1 |
| 20260506234504 | 71 | 270 | 2.6 | 9.6 | 0.00 | 0.00 | 0.00 | 51 | 1015.9 |
| 20260506233005 | 71 | 290 | 3.5 | 8.7 | 0.00 | 0.00 | 0.00 | 51 | 1015.9 |
| 20260506230004 | 71 | 320 | 3.5 | 9.6 | 0.00 | 0.00 | 0.00 | 52 | 1016.0 |
| 20260506223005 | 71 | 311 | 2.6 | 8.7 | 0.00 | 0.00 | 0.00 | 54 | 1016.3 |
| 20260506221711 | 71 | 284 | 2.6 | 9.6 | 0.00 | 0.00 | 0.00 | 55 | 1016.4 |
| 20260506220005 | 70 | 180 | 2.6 | 12.2 | 0.00 | 0.00 | 0.00 | 55 | 1016.5 |
| 20260506214600 | 70 | 232 | 3.5 | 8.7 | 0.00 | 0.00 | 0.00 | 59 | 1016.6 |
| 20260506213005 | 69 | 106 | 1.7 | 8.7 | 0.00 | 0.00 | 0.00 | 60 | 1016.9 |
| 20260506211504 | 69 | 265 | 3.5 | 13.0 | 0.00 | 0.00 | 0.00 | 61 | 1017.0 |
| 20260506210004 | 69 | 182 | 4.3 | 8.7 | 0.00 | 0.00 | 0.00 | 60 | 1017.2 |
| 20260506204507 | 68 | 267 | 1.7 | 8.7 | 0.00 | 0.00 | 0.00 | 62 | 1017.2 |
| 20260506203004 | 68 | 226 | 4.3 | 8.7 | 0.00 | 0.00 | 0.00 | 62 | 1017.4 |
| 20260506201508 | 67 | 219 | 3.5 | 8.7 | 0.00 | 0.00 | 0.00 | 64 | 1017.4 |
| 20260506200008 | 67 | 196 | 6.1 | 11.3 | 0.00 | 0.00 | 0.00 | 65 | 1017.4 |
| 20260506194522 | 66 | 212 | 4.3 | 9.6 | 0.00 | 0.00 | 0.00 | 65 | 1017.6 |
| 20260506193009 | 67 | 115 | 5.2 | 9.6 | 0.00 | 0.00 | 0.00 | 64 | 1017.8 |
| 20260506191513 | 68 | 184 | 0.9 | 7.8 | 0.00 | 0.00 | 0.00 | 53 | 1017.9 |
| 20260506190006 | 68 | 140 | 1.7 | 7.8 | 0.00 | 0.00 | 0.00 | 54 | 1018.0 |
| 20260506184509 | 66 | 169 | 2.6 | 7.8 | 0.00 | 0.00 | 0.00 | 57 | 1018.1 |
| 20260506183007 | 66 | 169 | 4.3 | 6.1 | 0.00 | 0.00 | 0.00 | 59 | 1018.2 |
| 20260506181506 | 65 | 150 | 4.3 | 7.0 | 0.00 | 0.00 | 0.00 | 59 | 1018.2 |
| 20260506180028 | 65 | 182 | 4.3 | 7.8 | 0.00 | 0.00 | 0.00 | 60 | 1018.3 |
| 20260506174506 | 64 | 150 | 2.6 | 4.3 | 0.00 | 0.00 | 0.00 | 62 | 1018.2 |
| 20260506173005 | 63 | 141 | 2.6 | 6.1 | 0.00 | 0.00 | 0.00 | 63 | 1018.5 |
| 20260506171521 | 63 | 174 | 2.6 | 5.2 | 0.00 | 0.00 | 0.00 | 65 | 1018.4 |
| 20260506170007 | 62 | 198 | 0.9 | 4.3 | 0.00 | 0.00 | 0.00 | 66 | 1018.5 |
| 20260506164508 | 62 | 72 | 2.6 | 3.5 | 0.00 | 0.00 | 0.00 | 66 | 1018.5 |
| 20260506163014 | 61 | 166 | 1.7 | 4.3 | 0.00 | 0.00 | 0.00 | 71 | 1018.6 |
| 20260506161514 | 60 | 170 | 1.7 | 5.2 | 0.00 | 0.00 | 0.00 | 72 | 1018.7 |
| 20260506160015 | 60 | 161 | 0.0 | 5.2 | 0.00 | 0.00 | 0.00 | 72 | 1018.6 |
| 20260506154508 | 60 | 100 | 0.9 | 6.1 | 0.00 | 0.00 | 0.00 | 73 | 1018.6 |
| 20260506153009 | 59 | 213 | 1.7 | 6.1 | 0.00 | 0.00 | 0.00 | 73 | 1018.6 |
| 20260506151507 | 60 | 182 | 1.7 | 4.3 | 0.00 | 0.00 | 0.00 | 72 | 1018.7 |
| 20260506150007 | 60 | 193 | 0.9 | 1.7 | 0.00 | 0.00 | 0.00 | 73 | 1018.6 |
| 20260506144509 | 61 | 82 | 0.9 | 1.7 | 0.00 | 0.00 | 0.00 | 70 | 1018.7 |
| 20260506143010 | 59 | 36 | 0.0 | 1.7 | 0.00 | 0.00 | 0.00 | 71 | 1018.5 |
| 20260506141510 | 57 | 27 | 0.9 | 1.7 | 0.00 | 0.00 | 0.00 | 74 | 1018.5 |
| 20260506140208 | 54 | 22 | 0.9 | 0.9 | 0.00 | 0.00 | 0.00 | 78 | 1018.3 |
| 20260506134519 | 53 | 11 | 0.9 | 0.9 | 0.00 | 0.00 | 0.00 | 81 | 1018.4 |
| 20260506133014 | 51 | 352 | 0.9 | 1.7 | 0.00 | 0.00 | 0.00 | 82 | 1018.1 |
| 20260506131525 | 51 | 9 | 0.9 | 0.9 | 0.00 | 0.00 | 0.00 | 81 | 1017.9 |
| 20260506130012 | 52 | 322 | 0.0 | 1.7 | 0.00 | 0.00 | 0.00 | 80 | 1017.9 |
| 20260506124502 | 52 | 335 | 0.9 | 1.7 | 0.00 | 0.00 | 0.00 | 79 | 1017.8 |
| 20260506123004 | 53 | 343 | 0.9 | 1.7 | 0.00 | 0.00 | 0.00 | 78 | 1017.7 |
| 20260506121507 | 52 | 302 | 0.9 | 1.7 | 0.00 | 0.00 | 0.00 | 80 | 1017.6 |
| 20260506120009 | 52 | 333 | 0.9 | 0.9 | 0.00 | 0.00 | 0.00 | 81 | 1017.6 |
| 20260506114506 | 52 | 360 | 0.9 | 1.7 | 0.00 | 0.00 | 0.00 | 82 | 1017.7 |
| 20260506113006 | 52 | 342 | 0.9 | 1.7 | 0.00 | 0.00 | 0.00 | 81 | 1017.7 |
| 20260506111504 | 51 | 9 | 0.0 | 1.7 | 0.00 | 0.00 | 0.00 | 83 | 1017.6 |
| 20260506110009 | 52 | 9 | 0.9 | 1.7 | 0.00 | 0.00 | 0.00 | 81 | 1017.6 |
| 20260506104503 | 53 | 352 | 0.0 | 1.7 | 0.00 | 0.00 | 0.00 | 82 | 1017.5 |
| 20260506103018 | 53 | 325 | 0.9 | 1.7 | 0.00 | 0.00 | 0.00 | 79 | 1017.6 |
| 20260506101505 | 53 | 346 | 1.7 | 1.7 | 0.00 | 0.00 | 0.00 | 79 | 1017.4 |
| 20260506100004 | 53 | 26 | 0.9 | 1.7 | 0.00 | 0.00 | 0.00 | 79 | 1017.4 |
| 20260506094504 | 53 | 319 | 0.9 | 1.7 | 0.00 | 0.00 | 0.00 | 77 | 1017.4 |
| 20260506093005 | 53 | 312 | 0.9 | 2.6 | 0.00 | 0.00 | 0.00 | 76 | 1017.6 |
| 20260506091509 | 53 | 307 | 0.9 | 1.7 | 0.00 | 0.00 | 0.00 | 77 | 1017.6 |
| 20260506090006 | 54 | 296 | 0.9 | 1.7 | 0.00 | 0.00 | 0.00 | 76 | 1017.7 |